KZR622 UACC-UAAA

Flight info

Callsign KZR622
Flight time 1h 18m
Altitude 37000
Route BEDKA1B BEDKA DCT KRG W333 ETEDA ETEDA1P
Aircraft B763/H-SDE3FGHIM3RWXY/LB1

Departure

Time 2026-04-20 14:28
Airport Nursultan Nazarbayev International Airport (UACC)

Arrival

Time 2026-04-20 15:46
Airport Almaty International Airport (UAAA)
Time Latitude Longitude Altitude Speed Heading
2026-04-20 13:59 51.02629 71.45995 1171 ft 0 kts 27°
2026-04-20 14:15 51.02628 71.45995 1171 ft 0 kts 28°
2026-04-20 14:16 51.02615 71.45987 1171 ft 2 kts 11°
2026-04-20 14:16 51.02601 71.45982 1171 ft 2 kts 15°
2026-04-20 14:16 51.02588 71.45975 1171 ft 1 kts 48°
2026-04-20 14:16 51.02579 71.45956 1171 ft 2 kts 52°
2026-04-20 14:17 51.02571 71.45936 1171 ft 2 kts 77°
2026-04-20 14:17 51.02571 71.45913 1171 ft 2 kts 101°
2026-04-20 14:17 51.02576 71.45892 1170 ft 2 kts 126°
2026-04-20 14:17 51.02581 71.45882 1170 ft 0 kts 134°
2026-04-20 14:19 51.02579 71.45885 1170 ft 1 kts 135°
2026-04-20 14:20 51.02561 71.45914 1171 ft 6 kts 135°
2026-04-20 14:20 51.02516 71.45985 1172 ft 10 kts 134°
2026-04-20 14:20 51.02462 71.46073 1172 ft 11 kts 134°
2026-04-20 14:20 51.02403 71.46162 1172 ft 12 kts 136°
2026-04-20 14:21 51.02352 71.46252 1170 ft 11 kts 111°
2026-04-20 14:21 51.02380 71.46352 1170 ft 11 kts 46°
2026-04-20 14:21 51.02451 71.46465 1171 ft 16 kts 44°
2026-04-20 14:21 51.02531 71.46589 1171 ft 11 kts 43°
2026-04-20 14:22 51.02587 71.46677 1171 ft 11 kts 44°
2026-04-20 14:22 51.02645 71.46766 1172 ft 12 kts 44°
2026-04-20 14:22 51.02709 71.46867 1171 ft 13 kts 44°
2026-04-20 14:22 51.02781 71.46977 1170 ft 14 kts 44°
2026-04-20 14:23 51.02858 71.47098 1169 ft 15 kts 44°
2026-04-20 14:23 51.02938 71.47224 1168 ft 17 kts 44°
2026-04-20 14:23 51.03022 71.47358 1167 ft 14 kts 44°
2026-04-20 14:23 51.03086 71.47459 1166 ft 11 kts 44°
2026-04-20 14:24 51.03144 71.47549 1166 ft 12 kts 44°
2026-04-20 14:24 51.03205 71.47646 1166 ft 12 kts 44°
2026-04-20 14:24 51.03268 71.47743 1167 ft 10 kts 44°
2026-04-20 14:24 51.03320 71.47825 1166 ft 11 kts 44°
2026-04-20 14:25 51.03375 71.47912 1167 ft 10 kts 44°
2026-04-20 14:25 51.03417 71.47997 1167 ft 7 kts 64°
2026-04-20 14:25 51.03424 71.48077 1167 ft 7 kts 91°
2026-04-20 14:25 51.03424 71.48162 1167 ft 8 kts 90°
2026-04-20 14:26 51.03413 71.48267 1167 ft 10 kts 117°
2026-04-20 14:26 51.03373 71.48330 1166 ft 5 kts 149°
2026-04-20 14:26 51.03347 71.48319 1166 ft 4 kts 216°
2026-04-20 14:26 51.03330 71.48296 1166 ft 0 kts 224°
2026-04-20 14:27 51.03328 71.48292 1166 ft 6 kts 224°
2026-04-20 14:27 51.03165 71.48041 1167 ft 59 kts 224°
2026-04-20 14:27 51.02743 71.47379 1170 ft 110 kts 224°
2026-04-20 14:27 51.02067 71.46321 1172 ft 158 kts 223°
2026-04-20 14:28 51.01219 71.44990 1493 ft 177 kts 222°
2026-04-20 14:28 51.00367 71.43623 2256 ft 175 kts 223°
2026-04-20 14:28 50.99497 71.42235 2593 ft 192 kts 223°
2026-04-20 14:28 50.98455 71.40622 2687 ft 225 kts 223°
2026-04-20 14:29 50.97276 71.38794 3040 ft 248 kts 223°
2026-04-20 14:29 50.96009 71.36840 3733 ft 258 kts 223°
2026-04-20 14:29 50.94685 71.34962 4631 ft 257 kts 210°
2026-04-20 14:29 50.93029 71.34084 5448 ft 260 kts 182°
2026-04-20 14:30 50.91264 71.34665 6316 ft 265 kts 153°
2026-04-20 14:30 50.89798 71.36439 7093 ft 272 kts 139°
2026-04-20 14:30 50.88396 71.38509 7913 ft 277 kts 139°
2026-04-20 14:30 50.87004 71.40627 8732 ft 282 kts 137°
2026-04-20 14:31 50.85593 71.42795 9534 ft 287 kts 140°
2026-04-20 14:31 50.84094 71.44798 10347 ft 290 kts 143°
2026-04-20 14:31 50.82475 71.46924 10616 ft 316 kts 142°
2026-04-20 14:31 50.80711 71.49269 10833 ft 343 kts 142°
2026-04-20 14:32 50.78880 71.51714 11682 ft 349 kts 142°
2026-04-20 14:32 50.77024 71.54188 12523 ft 354 kts 142°
2026-04-20 14:32 50.75143 71.56696 13382 ft 358 kts 142°
2026-04-20 14:32 50.73233 71.59238 14171 ft 363 kts 142°
2026-04-20 14:33 50.71275 71.61842 14939 ft 368 kts 142°
2026-04-20 14:33 50.69336 71.64419 15662 ft 373 kts 142°
2026-04-20 14:33 50.67339 71.67071 16404 ft 378 kts 143°
2026-04-20 14:33 50.65321 71.69746 17132 ft 382 kts 142°
2026-04-20 14:34 50.63271 71.72461 17808 ft 388 kts 142°
2026-04-20 14:34 50.61211 71.75185 18503 ft 392 kts 143°
2026-04-20 14:34 50.59129 71.77937 19181 ft 397 kts 142°
2026-04-20 14:34 50.57015 71.80727 19806 ft 403 kts 142°
2026-04-20 14:35 50.54832 71.83604 20440 ft 408 kts 143°
2026-04-20 14:35 50.52671 71.86448 21068 ft 412 kts 142°
2026-04-20 14:35 50.50463 71.89352 21645 ft 417 kts 142°
2026-04-20 14:35 50.48219 71.92298 22236 ft 422 kts 142°
2026-04-20 14:36 50.45965 71.95254 22795 ft 426 kts 142°
2026-04-20 14:36 50.43670 71.98261 23289 ft 431 kts 143°
2026-04-20 14:36 50.41356 72.01288 23847 ft 435 kts 143°
2026-04-20 14:36 50.39048 72.04302 24342 ft 440 kts 142°
2026-04-20 14:37 50.36683 72.07388 24942 ft 443 kts 142°
2026-04-20 14:37 50.34320 72.10465 25473 ft 447 kts 142°
2026-04-20 14:37 50.31907 72.13605 25955 ft 451 kts 142°
2026-04-20 14:37 50.29518 72.16709 26444 ft 454 kts 142°
2026-04-20 14:38 50.27079 72.19874 26917 ft 458 kts 142°
2026-04-20 14:38 50.24625 72.23052 27397 ft 461 kts 142°
2026-04-20 14:38 50.22272 72.26447 27829 ft 466 kts 134°
2026-04-20 14:38 50.20226 72.30444 28272 ft 471 kts 127°
2026-04-20 14:39 50.18279 72.34525 28706 ft 473 kts 128°
2026-04-20 14:39 50.16307 72.38675 29076 ft 477 kts 128°
2026-04-20 14:39 50.14319 72.42857 29552 ft 479 kts 127°
2026-04-20 14:39 50.12350 72.47002 29918 ft 482 kts 127°
2026-04-20 14:40 50.10339 72.51233 30305 ft 485 kts 127°
2026-04-20 14:40 50.08322 72.55470 30702 ft 488 kts 127°
2026-04-20 14:40 50.06308 72.59695 31035 ft 491 kts 127°
2026-04-20 14:40 50.04284 72.63936 31411 ft 493 kts 127°
2026-04-20 14:41 50.02214 72.68269 31777 ft 495 kts 128°
2026-04-20 14:41 50.00163 72.72546 32107 ft 498 kts 128°
2026-04-20 14:41 49.98114 72.76820 32526 ft 497 kts 128°
2026-04-20 14:41 49.96052 72.81115 32922 ft 498 kts 128°
2026-04-20 14:42 49.93978 72.85425 33380 ft 496 kts 128°
2026-04-20 14:42 49.91930 72.89674 33785 ft 496 kts 128°
2026-04-20 14:42 49.89873 72.93935 34153 ft 496 kts 128°
2026-04-20 14:42 49.87796 72.98229 34553 ft 495 kts 128°
2026-04-20 14:43 49.85733 73.02492 34901 ft 494 kts 128°
2026-04-20 14:43 49.83690 73.06703 35213 ft 494 kts 128°
2026-04-20 14:43 49.81623 73.10957 35504 ft 493 kts 128°
2026-04-20 14:43 49.79568 73.15181 35785 ft 493 kts 128°
2026-04-20 14:44 49.77504 73.19415 36068 ft 493 kts 128°
2026-04-20 14:44 49.75455 73.23611 36287 ft 494 kts 128°
2026-04-20 14:44 49.73382 73.27852 36565 ft 493 kts 128°
2026-04-20 14:44 49.71203 73.31980 36839 ft 492 kts 135°
2026-04-20 14:45 49.68729 73.35558 37008 ft 490 kts 145°
2026-04-20 14:45 49.65910 73.38515 37116 ft 486 kts 154°
2026-04-20 14:45 49.59797 73.42676 37091 ft 480 kts 161°
2026-04-20 14:46 49.53608 73.46478 37101 ft 479 kts 162°
2026-04-20 14:46 49.47419 73.50217 37383 ft 481 kts 162°
2026-04-20 14:47 49.44307 73.52089 37702 ft 480 kts 162°
2026-04-20 14:47 49.41210 73.53947 37981 ft 480 kts 162°
2026-04-20 14:47 49.38114 73.55801 38291 ft 480 kts 162°
2026-04-20 14:48 49.31894 73.59517 38831 ft 478 kts 162°
2026-04-20 14:48 49.28825 73.61346 39040 ft 479 kts 162°
2026-04-20 14:48 49.25721 73.63194 39242 ft 478 kts 162°
2026-04-20 14:48 49.22608 73.65044 39367 ft 480 kts 163°
2026-04-20 14:49 49.19517 73.66879 39607 ft 478 kts 163°
2026-04-20 14:49 49.16395 73.68731 39734 ft 479 kts 163°
2026-04-20 14:49 49.13314 73.70555 39898 ft 479 kts 163°
2026-04-20 14:49 49.10195 73.72399 40067 ft 478 kts 163°
2026-04-20 14:50 49.07117 73.74216 40180 ft 478 kts 163°
2026-04-20 14:50 49.03985 73.76063 40335 ft 478 kts 163°
2026-04-20 14:50 49.00906 73.77878 40450 ft 477 kts 163°
2026-04-20 14:51 48.94725 73.81499 40559 ft 478 kts 163°
2026-04-20 14:51 48.88517 73.85123 40695 ft 479 kts 163°
2026-04-20 14:52 48.82294 73.88746 40804 ft 479 kts 163°
2026-04-20 14:52 48.76102 73.92341 40905 ft 479 kts 163°
2026-04-20 14:53 48.69894 73.95935 41009 ft 479 kts 163°
2026-04-20 14:53 48.63648 73.99542 41095 ft 477 kts 163°
2026-04-20 14:54 48.57501 74.03083 41122 ft 474 kts 163°
2026-04-20 14:54 48.51329 74.06628 41122 ft 474 kts 163°
2026-04-20 14:55 48.45210 74.10134 41131 ft 474 kts 163°
2026-04-20 14:55 48.39057 74.13650 41130 ft 474 kts 162°
2026-04-20 14:56 48.32874 74.17175 41129 ft 475 kts 162°
2026-04-20 14:56 48.26695 74.20689 41138 ft 475 kts 162°
2026-04-20 14:57 48.20556 74.24170 41136 ft 475 kts 162°
2026-04-20 14:57 48.14343 74.27684 41132 ft 476 kts 162°
2026-04-20 14:58 48.08179 74.31202 41135 ft 477 kts 162°
2026-04-20 14:58 48.02006 74.34727 41129 ft 477 kts 162°
2026-04-20 14:59 47.95830 74.38244 41126 ft 478 kts 162°
2026-04-20 14:59 47.89645 74.41757 41131 ft 478 kts 162°
2026-04-20 15:00 47.83405 74.45293 41128 ft 478 kts 162°
2026-04-20 15:00 47.77201 74.48798 41126 ft 479 kts 162°
2026-04-20 15:01 47.71011 74.52287 41135 ft 479 kts 162°
2026-04-20 15:01 47.64791 74.55784 41130 ft 480 kts 162°
2026-04-20 15:02 47.58551 74.59283 41128 ft 480 kts 162°
2026-04-20 15:02 47.52302 74.62785 41131 ft 481 kts 162°
2026-04-20 15:03 47.46058 74.66300 41123 ft 481 kts 162°
2026-04-20 15:03 47.39826 74.69797 41129 ft 481 kts 162°
2026-04-20 15:04 47.33573 74.73296 41121 ft 481 kts 162°
2026-04-20 15:04 47.27298 74.76801 41121 ft 481 kts 162°
2026-04-20 15:05 47.21062 74.80273 41122 ft 482 kts 162°
2026-04-20 15:05 47.14816 74.83742 41112 ft 482 kts 162°
2026-04-20 15:06 47.08550 74.87215 41116 ft 483 kts 162°
2026-04-20 15:06 47.02272 74.90685 41113 ft 483 kts 162°
2026-04-20 15:07 46.95979 74.94154 41116 ft 484 kts 162°
2026-04-20 15:07 46.89704 74.97605 41110 ft 484 kts 162°
2026-04-20 15:08 46.83497 75.01420 41103 ft 485 kts 159°
2026-04-20 15:08 46.77339 75.05338 41091 ft 485 kts 159°
2026-04-20 15:09 46.71176 75.09242 41093 ft 485 kts 159°
2026-04-20 15:09 46.64990 75.13150 41092 ft 485 kts 159°
2026-04-20 15:10 46.58814 75.17043 41090 ft 485 kts 159°
2026-04-20 15:10 46.52621 75.20935 41091 ft 486 kts 159°
2026-04-20 15:11 46.46442 75.24809 41091 ft 486 kts 159°
2026-04-20 15:11 46.40232 75.28692 41096 ft 487 kts 159°
2026-04-20 15:12 46.34015 75.32570 41098 ft 487 kts 159°
2026-04-20 15:12 46.27804 75.36435 41096 ft 488 kts 159°
2026-04-20 15:13 46.21589 75.40295 41102 ft 488 kts 158°
2026-04-20 15:13 46.15354 75.44190 41092 ft 489 kts 158°
2026-04-20 15:14 46.09097 75.48089 41097 ft 490 kts 158°
2026-04-20 15:14 46.02890 75.51945 41097 ft 490 kts 158°
2026-04-20 15:15 45.96614 75.55836 41096 ft 491 kts 158°
2026-04-20 15:15 45.90343 75.59715 41098 ft 491 kts 158°
2026-04-20 15:16 45.84058 75.63593 41081 ft 492 kts 158°
2026-04-20 15:16 45.77765 75.67466 41078 ft 492 kts 159°
2026-04-20 15:17 45.71479 75.71324 41074 ft 492 kts 159°
2026-04-20 15:17 45.65218 75.75161 41082 ft 492 kts 159°
2026-04-20 15:18 45.58922 75.79011 41076 ft 492 kts 159°
2026-04-20 15:18 45.52665 75.82826 41075 ft 492 kts 159°
2026-04-20 15:19 45.46370 75.86657 41089 ft 492 kts 159°
2026-04-20 15:19 45.40074 75.90476 41070 ft 492 kts 159°
2026-04-20 15:20 45.33798 75.94276 41081 ft 492 kts 158°
2026-04-20 15:20 45.27501 75.98080 41075 ft 489 kts 158°
2026-04-20 15:21 45.21389 76.01764 40911 ft 471 kts 159°
2026-04-20 15:21 45.18404 76.03560 40663 ft 465 kts 159°
2026-04-20 15:21 45.15457 76.05330 40418 ft 455 kts 159°
2026-04-20 15:21 45.12534 76.07083 40168 ft 452 kts 158°
2026-04-20 15:22 45.09649 76.08811 39923 ft 460 kts 158°
2026-04-20 15:22 45.06659 76.10601 39395 ft 472 kts 158°
2026-04-20 15:22 45.03635 76.12409 38883 ft 477 kts 158°
2026-04-20 15:22 45.00577 76.14236 38305 ft 476 kts 158°
2026-04-20 15:23 44.97532 76.16055 37731 ft 472 kts 158°
2026-04-20 15:23 44.94500 76.17863 37172 ft 471 kts 158°
2026-04-20 15:23 44.91505 76.19645 36642 ft 472 kts 158°
2026-04-20 15:23 44.88472 76.21447 36195 ft 476 kts 158°
2026-04-20 15:24 44.85413 76.23264 35777 ft 479 kts 158°
2026-04-20 15:24 44.82313 76.25104 35323 ft 481 kts 158°
2026-04-20 15:24 44.79269 76.26907 34862 ft 482 kts 158°
2026-04-20 15:24 44.76162 76.28746 34373 ft 482 kts 158°
2026-04-20 15:25 44.73077 76.30570 33832 ft 483 kts 158°
2026-04-20 15:25 44.69957 76.32412 33295 ft 482 kts 158°
2026-04-20 15:25 44.66863 76.34237 32768 ft 482 kts 158°
2026-04-20 15:25 44.63773 76.36057 32246 ft 482 kts 157°
2026-04-20 15:26 44.60723 76.37852 31737 ft 482 kts 158°
2026-04-20 15:26 44.57606 76.39684 31223 ft 482 kts 157°
2026-04-20 15:26 44.54548 76.41478 30717 ft 482 kts 157°
2026-04-20 15:26 44.51425 76.43310 30206 ft 482 kts 157°
2026-04-20 15:27 44.48352 76.45110 29705 ft 482 kts 157°
2026-04-20 15:27 44.45269 76.46906 29198 ft 479 kts 158°
2026-04-20 15:27 44.42137 76.48291 28694 ft 473 kts 168°
2026-04-20 15:27 44.38908 76.48953 28204 ft 467 kts 178°
2026-04-20 15:28 44.35658 76.48875 27716 ft 460 kts 187°
2026-04-20 15:28 44.32511 76.48325 27149 ft 457 kts 192°
2026-04-20 15:28 44.29459 76.47214 26596 ft 450 kts 202°
2026-04-20 15:28 44.26662 76.45456 26075 ft 440 kts 213°
2026-04-20 15:29 44.24134 76.43125 25580 ft 431 kts 219°
2026-04-20 15:29 44.21719 76.40667 25075 ft 429 kts 219°
2026-04-20 15:29 44.19314 76.38203 24580 ft 428 kts 219°
2026-04-20 15:29 44.16923 76.35740 24130 ft 426 kts 219°
2026-04-20 15:30 44.14565 76.33306 23697 ft 423 kts 219°
2026-04-20 15:30 44.12194 76.30857 23260 ft 421 kts 219°
2026-04-20 15:30 44.09857 76.28444 22831 ft 419 kts 219°
2026-04-20 15:30 44.07532 76.26045 22387 ft 415 kts 219°
2026-04-20 15:31 44.05217 76.23712 21954 ft 412 kts 215°
2026-04-20 15:31 44.02657 76.22003 21547 ft 411 kts 199°
2026-04-20 15:31 43.99858 76.21230 21078 ft 410 kts 184°
2026-04-20 15:31 43.97014 76.21411 20525 ft 409 kts 173°
2026-04-20 15:32 43.94211 76.21614 19991 ft 406 kts 183°
2026-04-20 15:32 43.91390 76.21757 19466 ft 404 kts 171°
2026-04-20 15:32 43.88691 76.22835 18960 ft 402 kts 158°
2026-04-20 15:32 43.86078 76.24170 18415 ft 399 kts 163°
2026-04-20 15:33 43.83413 76.25204 17876 ft 397 kts 165°
2026-04-20 15:33 43.80759 76.26142 17350 ft 396 kts 167°
2026-04-20 15:33 43.78093 76.27021 16815 ft 394 kts 168°
2026-04-20 15:33 43.75423 76.27869 16327 ft 391 kts 168°
2026-04-20 15:34 43.72779 76.28694 15876 ft 388 kts 169°
2026-04-20 15:34 43.70156 76.29503 15439 ft 383 kts 169°
2026-04-20 15:34 43.67576 76.30295 15067 ft 377 kts 169°
2026-04-20 15:34 43.65046 76.31070 14803 ft 368 kts 169°
2026-04-20 15:35 43.62560 76.31827 14484 ft 366 kts 169°
2026-04-20 15:35 43.60068 76.32588 14153 ft 360 kts 169°
2026-04-20 15:35 43.57641 76.33356 13769 ft 360 kts 169°
2026-04-20 15:35 43.55196 76.34132 13333 ft 357 kts 169°
2026-04-20 15:36 43.52823 76.34885 12966 ft 350 kts 169°
2026-04-20 15:36 43.50448 76.35638 12586 ft 347 kts 168°
2026-04-20 15:36 43.48199 76.36728 12196 ft 346 kts 152°
2026-04-20 15:36 43.46278 76.38657 11947 ft 333 kts 137°
2026-04-20 15:37 43.44649 76.40739 11776 ft 314 kts 138°
2026-04-20 15:37 43.43066 76.42763 11275 ft 308 kts 137°
2026-04-20 15:37 43.41512 76.44778 10778 ft 302 kts 137°
2026-04-20 15:37 43.40015 76.46729 10390 ft 292 kts 137°
2026-04-20 15:38 43.38577 76.48606 9929 ft 286 kts 137°
2026-04-20 15:38 43.37144 76.50481 9530 ft 278 kts 137°
2026-04-20 15:38 43.35769 76.52278 9200 ft 270 kts 137°
2026-04-20 15:38 43.34423 76.54037 8961 ft 266 kts 137°
2026-04-20 15:39 43.33081 76.55791 8748 ft 268 kts 137°
2026-04-20 15:39 43.31717 76.57573 8545 ft 273 kts 136°
2026-04-20 15:39 43.30332 76.59380 8100 ft 278 kts 136°
2026-04-20 15:39 43.28949 76.61185 7940 ft 270 kts 136°
2026-04-20 15:40 43.27611 76.62929 7859 ft 261 kts 136°
2026-04-20 15:40 43.26513 76.64885 7363 ft 266 kts 112°
2026-04-20 15:40 43.26003 76.67320 6929 ft 266 kts 104°
2026-04-20 15:40 43.25574 76.69759 6750 ft 255 kts 104°
2026-04-20 15:41 43.25165 76.72109 6442 ft 254 kts 104°
2026-04-20 15:41 43.24770 76.74438 6174 ft 249 kts 103°
2026-04-20 15:41 43.24391 76.76688 6192 ft 233 kts 104°
2026-04-20 15:41 43.24038 76.78797 6201 ft 219 kts 103°
2026-04-20 15:42 43.24062 76.80759 6224 ft 205 kts 71°
2026-04-20 15:42 43.24741 76.82479 5814 ft 213 kts 58°
2026-04-20 15:42 43.25568 76.84190 5237 ft 222 kts 58°
2026-04-20 15:42 43.26447 76.85960 4815 ft 222 kts 57°
2026-04-20 15:43 43.27307 76.87664 4649 ft 212 kts 57°
2026-04-20 15:43 43.28135 76.89314 4410 ft 207 kts 57°
2026-04-20 15:43 43.28936 76.90912 4147 ft 202 kts 57°
2026-04-20 15:43 43.29727 76.92493 3908 ft 194 kts 57°
2026-04-20 15:44 43.30447 76.93932 3693 ft 173 kts 58°
2026-04-20 15:44 43.31101 76.95241 3456 ft 162 kts 58°
2026-04-20 15:44 43.31712 76.96467 3299 ft 150 kts 57°
2026-04-20 15:44 43.32296 76.97626 3084 ft 147 kts 56°
2026-04-20 15:45 43.32888 76.98760 2851 ft 147 kts 57°
2026-04-20 15:45 43.33458 76.99931 2689 ft 145 kts 58°
2026-04-20 15:45 43.34020 77.01069 2505 ft 147 kts 57°
2026-04-20 15:45 43.34598 77.02238 2302 ft 146 kts 57°
2026-04-20 15:46 43.35149 77.03357 2227 ft 133 kts 56°
2026-04-20 15:46 43.35571 77.04210 2235 ft 76 kts 56°
2026-04-20 15:46 43.35794 77.04662 2237 ft 42 kts 56°
2026-04-20 15:46 43.35926 77.04927 2237 ft 26 kts 56°
2026-04-20 15:47 43.35973 77.05054 2238 ft 9 kts 96°
2026-04-20 15:47 43.35936 77.05112 2239 ft 8 kts 143°
2026-04-20 15:47 43.35885 77.05161 2240 ft 10 kts 146°
2026-04-20 15:47 43.35820 77.05168 2241 ft 11 kts 224°
2026-04-20 15:48 43.35766 77.05064 2240 ft 16 kts 236°
2026-04-20 15:48 43.35686 77.04901 2240 ft 25 kts 236°
2026-04-20 15:48 43.35574 77.04676 2239 ft 30 kts 236°
2026-04-20 15:48 43.35455 77.04434 2239 ft 30 kts 236°
2026-04-20 15:49 43.35333 77.04188 2237 ft 31 kts 236°
2026-04-20 15:49 43.35209 77.03939 2235 ft 32 kts 236°
2026-04-20 15:49 43.35111 77.03744 2233 ft 32 kts 236°
2026-04-20 15:49 43.34946 77.03409 2229 ft 21 kts 236°
2026-04-20 15:50 43.34870 77.03253 2229 ft 19 kts 236°
2026-04-20 15:50 43.34829 77.03157 2228 ft 17 kts 244°
2026-04-20 15:50 43.34787 77.02972 2228 ft 11 kts 261°
2026-04-20 15:50 43.34780 77.02868 2228 ft 10 kts 267°
2026-04-20 15:51 43.34779 77.02784 2228 ft 8 kts 269°
2026-04-20 15:51 43.34777 77.02690 2228 ft 11 kts 268°
2026-04-20 15:51 43.34772 77.02568 2228 ft 14 kts 266°
2026-04-20 15:51 43.34776 77.02422 2227 ft 17 kts 272°
2026-04-20 15:52 43.34784 77.02238 2223 ft 18 kts 274°
2026-04-20 15:52 43.34790 77.02110 2221 ft 8 kts 274°
2026-04-20 15:52 43.34795 77.02019 2221 ft 10 kts 274°
2026-04-20 15:53 43.34802 77.01856 2222 ft 10 kts 273°
2026-04-20 15:53 43.34809 77.01717 2223 ft 11 kts 274°
2026-04-20 15:53 43.34815 77.01603 2223 ft 12 kts 274°
2026-04-20 15:53 43.34815 77.01494 2223 ft 11 kts 257°
2026-04-20 15:54 43.34781 77.01405 2222 ft 9 kts 220°
2026-04-20 15:54 43.34729 77.01408 2224 ft 7 kts 155°
2026-04-20 15:54 43.34700 77.01427 2224 ft 6 kts 155°
2026-04-20 15:54 43.34647 77.01440 2226 ft 4 kts 197°
2026-04-20 15:55 43.34635 77.01427 2226 ft 3 kts 236°
2026-04-20 15:55 43.34633 77.01376 2227 ft 5 kts 275°
2026-04-20 15:55 43.34634 77.01362 2227 ft 2 kts 275°
2026-04-20 15:55 43.34634 77.01350 2227 ft 0 kts 275°